星链-11402 (STARLINK-11402)

导读

STARLINK-11402是美国SpaceX公司星链(Starlink)卫星互联网星座的一员,于2024年11月9日发射入轨。星链项目旨在通过大规模低轨道卫星组网,为全球提供高速低延迟互联网接入,尤其覆盖地面网络难以抵达的偏远区域。STARLINK-11402运行在近地轨道,参与构建全球卫星通信网络,助力缩小数字鸿沟,同时星链也被应用于应急通信等领域,不过大规模低轨卫星部署也引发天文观测与太空安全等争议。

基本信息
目录编号:
61874
目录名称:
STARLINK-11402
国际标识:
2024-204A
轨道中心:
EARTH
卫星名称:
星链-11402
卫星全名:
星链-11402 (STARLINK-11402)
卫星状态:
在轨 (已飞行626 天)
发射日期:
2024-11-09 UTC
国别 :
美国 (US)
星等 :
--
轨道信息
数据来源 国际轨道数据
星历时间: 2026-07-27T20:44:21+0800
11小时前
查看轨道信息
半长轴: 6737.852km
偏心率: 0.000058
轨道倾角: 53.156°
近地点辐角 66.240°
升交点赤经 27.254°
平近点角 293.868°
近地点: 359.324km
远地点: 360.106km
周期: 91.736分钟
每日圈数: 15.697142
详细信息
固有亮度:
5
最大亮度:
2.5
卫星平台:
Starlink V1.0
覆盖范围:
全球
运营商:
太空探索技术公司
运营商所在国:
美国
制造商(研发单位):
太空探索技术公司
制造商所在国:
美国
使用方式:
暂无
卫星简介
Starlink 计划是 SpaceX 推出的全球卫星互联网项目,通过发射低轨道卫星,为全球尤其是偏远地区提供高速、低延迟的互联网服务。自 2019 年起,Starlink 已部署数千颗卫星,旨在缩小全球数字鸿沟,推动互联网普及。该项目还为军事、航空等行业提供通信支持,带来广泛经济效益。
2D轨道图
3D轨道图
轨道高度分析图
轨道倾角分析图
轨道综合分析图
查看轨道综合分析图